St. Stephen, New Brunswick

8:46 PM ADT on August 23, 2017 (GMT -0300)
St. Stephen

Weather History for CWSS - October, 2012

Change the Weather History Date:

Sunday, October 7, 2012

  Actual Average Record
Temperature  
Mean Temperature 48 °F -  
Max Temperature 57 °F - - ()
Min Temperature 39 °F - - ()
Degree Days  
Heating Degree Days 17    
Moisture  
Dew Point 44 °F    
Average Humidity 82    
Maximum Humidity 98    
Minimum Humidity 46    
Precipitation  
Precipitation 0.03 in - - ()
Sea Level Pressure  
Sea Level Pressure 29.96 in    
Wind  
Wind Speed 2 mph ()    
Max Wind Speed 8 mph    
Max Gust Speed -    
T = Trace of Precipitation, MM = Missing Value Source: Averaged Metar Reports

Daily Weather History Graph

Daily Weather History Graph

Search for Another Location

Airport or City:

Trip Planner

Search our weather history database for the weather conditions in past years. The results will help you decide how hot, cold, wet, or windy it might be!

Date:

Astronomy

Oct. 07, 2012 Rise Set
Actual Time 7:35 AM ADT 6:57 PM ADT
Civil Twilight 7:05 AM ADT 7:26 PM ADT
Nautical Twilight 6:31 AM ADT 8:00 PM ADT
Astronomical Twilight 5:57 AM ADT 8:35 PM ADT
Moon 11:54 PM ADT (10/7) 2:21 PM ADT (10/7)
Length of Visible Light 12h 21m
Length of Day
11h 22m
Waning Gibbous, 57% of the Moon is Illuminated
Oct 7
Waning Gibbous
Oct 8
Last Quarter
Oct 15
New
Oct 22
First Quarter
Oct 29
Full

Hourly Weather History & Observations

Time (ADT) Temp. Dew Point Humidity Pressure Visibility Wind Dir Wind Speed Gust Speed Precip Events Conditions
12:00 AM 52 °F 50 °F 91% 29.78 in - WNW 3.5 mph - -  
12:00 AM 51.8 °F 50.2 °F 94% 29.78 in - WNW 3.5 mph - 0.02 in   Unknown
1:00 AM 51.4 °F 49.6 °F 94% 29.80 in - WNW 4.6 mph - 0.05 in   Unknown
2:00 AM 50.4 °F 47.7 °F 90% 29.82 in - NW 3.5 mph - N/A   Unknown
3:00 AM 47 °F 44 °F 87% 29.83 in - Calm Calm - -  
3:00 AM 46.6 °F 44.4 °F 92% 29.83 in - Calm Calm - N/A   Unknown
4:00 AM 43.3 °F 42.3 °F 96% 29.85 in - WNW 1.2 mph - N/A   Unknown
5:00 AM 41.5 °F 40.6 °F 97% 29.88 in - Calm Calm - N/A   Unknown
6:00 AM 43 °F 43 °F 98% 29.91 in - West 2.3 mph - -  
6:00 AM 43.2 °F 42.6 °F 98% 29.91 in - West 2.3 mph - N/A   Unknown
7:00 AM 42.8 °F 41.4 °F 95% 29.93 in - NW 1.2 mph - N/A   Unknown
8:00 AM 39.9 °F 39.0 °F 97% 29.95 in - WNW 1.2 mph - N/A   Unknown
9:00 AM 46 °F 45 °F 93% 29.98 in - WNW 1.2 mph - -  
9:00 AM 46.4 °F 44.6 °F 93% 29.98 in - WNW 1.2 mph - N/A   Unknown
10:00 AM 50.2 °F 45.1 °F 83% 30.01 in - West 4.6 mph - N/A   Unknown
11:00 AM 52.3 °F 41.7 °F 67% 30.02 in - WNW 8.1 mph - N/A   Unknown
12:00 PM 54 °F 42 °F 53% 30.02 in - NW 5.8 mph - -  
12:00 PM 54.0 °F 41.9 °F 64% 30.02 in - NW 5.8 mph - N/A   Unknown
1:00 PM 56.3 °F 41.7 °F 58% 30.02 in - West 5.8 mph - N/A   Unknown
2:00 PM 55.8 °F 40.8 °F 57% 30.01 in - West 5.8 mph - N/A   Unknown
3:00 PM 57 °F 42 °F 46% 30.00 in - WSW 4.6 mph - -  
3:00 PM 56.7 °F 42.1 °F 58% 30.00 in - WSW 4.6 mph - N/A   Unknown
4:00 PM 54.9 °F 41.9 °F 62% 30.01 in - West 4.6 mph - N/A   Unknown
5:00 PM 54.0 °F 43.0 °F 66% 30.02 in - West 2.3 mph - N/A   Unknown
6:00 PM 53 °F 44 °F 62% 30.03 in - West 2.3 mph - -  
6:00 PM 52.7 °F 43.7 °F 71% 30.03 in - West 2.3 mph - N/A   Unknown
7:00 PM 50.2 °F 46.8 °F 88% 30.04 in - SE 1.2 mph - N/A   Unknown
8:00 PM 49.1 °F 46.6 °F 91% 30.04 in - East 1.2 mph - N/A   Unknown
9:00 PM 49 °F 47 °F 89% 30.04 in - Calm Calm - -  
9:00 PM 48.7 °F 46.8 °F 93% 30.04 in - Calm Calm - N/A   Unknown
10:00 PM 46.0 °F 44.6 °F 95% 30.04 in - Calm Calm - N/A   Unknown
11:00 PM 45.5 °F 44.4 °F 96% 30.03 in - Calm Calm - N/A   Unknown